星链-5725 (STARLINK-5725 )

导读 | 星芒AI

STARLINK-5725 是 SpaceX Starlink 卫星互联网项目中的一颗低轨通信卫星。它属于 Starlink 群体部署的一部分,旨在为全球用户提供高速互联网接入服务。该卫星运行在约 550 公里的近地轨道上,采用先进通信技术,支持宽带数据传输。STARLINK-5725 有助于提升 Starlink 网络的覆盖范围和连接稳定性,特别是在偏远和网络基础设施薄弱的地区。其部署是 SpaceX 扩展全球卫星互联网服务的重要一环。

基本信息
目录编号:
55605
目录名称:
STARLINK-5725
国际标识:
2023-020AN
轨道中心:
EARTH
卫星名称:
星链-5725
卫星全名:
星链-5725 (STARLINK-5725 )
卫星状态:
在轨 (已飞行996 天)
发射日期:
2023-02-12 UTC
国别 :
美国 (US)
星等 :
--
轨道信息
数据来源 国际轨道数据
星历时间: 2025-11-04T15:05:31+0800
5小时前
查看轨道信息
半长轴: 6937.233km
偏心率: 0.0001883
轨道倾角: 43.007°
近地点辐角 274.667°
升交点赤经 313.290°
平近点角 85.395°
近地点: 557.791km
远地点: 560.405km
周期: 95.838分钟
每日圈数: 15.025307
详细信息
固有亮度:
5
最大亮度:
2.5
卫星平台:
Starlink v1.5
覆盖范围:
全球
运营商:
太空探索技术公司
运营商所在国:
美国
制造商(研发单位):
太空探索技术公司
制造商所在国:
美国
使用方式:
暂无
卫星简介
星链(Starlink)计划是由太空探索技术公司(SpaceX)提出的一个巨型低轨卫星互联网星座项目,计划在2019年至2024年间在太空搭建由约1.2万颗卫星组成的“星链”网络,其中1584颗将部署在地球上空550千米处的近地轨道,并从2020年开始工作。该卫星仍在工作。
2D轨道图
3D轨道图
轨道高度分析图
轨道倾角分析图
轨道综合分析图
查看轨道综合分析图